Location: LDNL
(36.4545°S, 141.6685°E)
Time: 10:38:08
(UTC+10:00)

deb Explorer IX - Visible Passes

Search period start: 08 August 2022 00:00
Search period end: 18 August 2022 00:00
Orbit: 531 x 1067 km, 38.8° (Epoch: 07 August)

Date Brightness Start Highest point End Pass type
(mag) Time Alt. Az. Time Alt. Az. Time Alt. Az.
08 Aug ? 18:52:16 10° W 18:57:48 77° SSW 19:01:02 21° ESE visible
08 Aug ? 20:39:28 10° WSW 20:41:52 27° WSW 20:41:52 27° WSW visible
09 Aug ? 18:22:01 10° W 18:27:48 79° SSW 18:32:42 10° ESE visible
09 Aug ? 20:09:19 10° WSW 20:13:32 54° SW 20:13:32 54° SW visible
10 Aug ? 19:39:06 10° W 19:44:28 69° S 19:45:14 58° SE visible
11 Aug ? 19:08:52 10° W 19:14:28 69° S 19:16:55 29° E visible
11 Aug ? 20:55:57 10° WSW 20:57:45 21° W 20:57:45 21° W visible
12 Aug ? 18:38:36 10° W 18:44:25 69° S 18:48:39 14° E visible
12 Aug ? 20:25:45 10° WSW 20:29:29 44° W 20:29:29 44° W visible
13 Aug ? 19:55:31 10° WSW 20:00:58 74° NNW 20:01:15 71° N visible
14 Aug ? 19:25:16 10° WSW 19:30:58 78° NNW 19:33:05 35° ENE visible
14 Aug ? 21:12:53 10° W 21:13:56 14° W 21:13:56 14° W visible
15 Aug ? 18:55:00 10° WSW 19:00:54 82° NNW 19:04:58 16° ENE visible
15 Aug ? 20:42:32 10° W 20:45:49 24° NW 20:45:49 24° NW visible
16 Aug ? 18:24:40 10° WSW 18:30:50 85° NNW 18:36:01 10° ENE visible
16 Aug ? 20:12:12 10° W 20:16:52 29° NW 20:17:48 27° NNW visible
17 Aug ? 19:41:51 10° W 19:46:52 32° NW 19:49:53 17° NNE visible
